Rome, GA

7:10 PM EST on November 14, 2019 (GMT -0500)
Russell

Weather History for KRMG - September, 2019

Change the Weather History Date:

Friday, September 6, 2019

  Actual Average Record
Temperature  
Mean Temperature 78 °F 75 °F  
Max Temperature 93 °F 87 °F 98 °F (1999)
Min Temperature 63 °F 64 °F 7 °F (1996)
Degree Days  
Heating Degree Days 0 0  
Month to date heating degree days 0 0  
Since 1 July heating degree days 0 0  
Cooling Degree Days 13 10  
Month to date cooling degree days 92 64  
Year to date cooling degree days 1851 1430  
Growing Degree Days 28 (Base 50)    
Moisture  
Dew Point 60 °F    
Average Humidity 54    
Maximum Humidity 78    
Minimum Humidity 32    
Precipitation  
Precipitation 0.00 in 0.09 in 0.55 in (2011)
Month to date precipitation 0.00 0.52  
Year to date precipitation 42.45 35.94  
Sea Level Pressure  
Sea Level Pressure 29.91 in    
Wind  
Wind Speed 6 mph ()    
Max Wind Speed 14 mph    
Max Gust Speed 25 mph    
Visibility 10.0 miles    
Events      
T = Trace of Precipitation, MM = Missing Value Source: Averaged Metar Reports

Daily Weather History Graph

Daily Weather History Graph

Search for Another Location

Airport or City:

Astronomy

Sep. 06, 2019 Rise Set
Actual Time 7:17 AM EDT 8:00 PM EDT
Civil Twilight 6:51 AM EDT 8:25 PM EDT
Nautical Twilight 6:21 AM EDT 8:55 PM EDT
Astronomical Twilight 5:51 AM EDT 9:26 PM EDT
Moon 3:05 PM EDT (9/6) 12:35 AM EDT (9/6)
Length of Visible Light 13h 33m
Length of Day
12h 42m
First Quarter, 55% of the Moon is Illuminated
Sep 6
First Quarter
Sep 14
Full
Sep 21
Last Quarter
Sep 28
New
Oct 5
First Quarter

Hourly Weather History & Observations

Time (EDT) Temp. Heat Index Dew Point Humidity Pressure Visibility Wind Dir Wind Speed Gust Speed Precip Events Conditions
12:53 AM 75.0 °F - 61.0 °F 62% 29.90 in 10.0 mi NNW 8.1 mph - N/A   Clear
1:53 AM 73.0 °F - 61.0 °F 66% 29.90 in 10.0 mi NNW 6.9 mph - N/A   Clear
2:53 AM 72.0 °F - 60.1 °F 66% 29.90 in 10.0 mi NNW 5.8 mph - N/A   Clear
3:53 AM 72.0 °F - 60.1 °F 66% 29.89 in 10.0 mi NNW 6.9 mph - N/A   Clear
4:53 AM 71.1 °F - 59.0 °F 66% 29.89 in 10.0 mi NNW 5.8 mph - N/A   Clear
5:53 AM 69.1 °F - 59.0 °F 70% 29.90 in 10.0 mi NNW 9.2 mph - N/A   Clear
6:53 AM 66.9 °F - 59.0 °F 76% 29.91 in 10.0 mi NNW 3.5 mph - N/A   Clear
7:53 AM 68.0 °F - 59.0 °F 73% 29.94 in 10.0 mi NW 5.8 mph - N/A   Clear
8:53 AM 72.0 °F - 60.1 °F 66% 29.95 in 10.0 mi NNW 5.8 mph - N/A   Clear
9:53 AM 77.0 °F - 61.0 °F 58% 29.96 in 10.0 mi North 6.9 mph - N/A   Clear
10:53 AM 81.0 °F 81.9 °F 62.1 °F 52% 29.95 in 10.0 mi North 11.5 mph - N/A   Clear
11:53 AM 84.0 °F 83.8 °F 59.0 °F 43% 29.95 in 10.0 mi NNW 8.1 mph - N/A   Clear
12:53 PM 84.9 °F 84.2 °F 57.9 °F 40% 29.94 in 10.0 mi NW 9.2 mph - N/A   Clear
1:53 PM 88.0 °F 86.7 °F 57.0 °F 35% 29.93 in 10.0 mi NNW 11.5 mph - N/A   Clear
2:53 PM 89.1 °F 88.0 °F 57.9 °F 35% 29.91 in 10.0 mi North 10.4 mph - N/A   Clear
3:53 PM 91.0 °F 90.0 °F 57.9 °F 33% 29.89 in 10.0 mi Variable 4.6 mph - N/A   Clear
4:53 PM 93.0 °F 92.3 °F 59.0 °F 32% 29.88 in 10.0 mi North 6.9 mph - N/A   Clear
5:53 PM 91.9 °F 90.8 °F 57.9 °F 32% 29.88 in 10.0 mi NNW 9.2 mph - N/A   Partly Cloudy
6:53 PM 91.0 °F 90.0 °F 57.9 °F 33% 29.88 in 10.0 mi WNW 6.9 mph - N/A   Clear
7:53 PM 86.0 °F 85.7 °F 60.1 °F 41% 29.89 in 10.0 mi NW 5.8 mph - N/A   Clear
8:53 PM 82.9 °F 83.2 °F 60.1 °F 46% 29.90 in 10.0 mi NW 5.8 mph - N/A   Clear
9:53 PM 80.1 °F 81.1 °F 61.0 °F 52% 29.91 in 10.0 mi Calm Calm - N/A   Clear
10:53 PM 73.9 °F - 63.0 °F 68% 29.91 in 10.0 mi Calm Calm - N/A   Clear
11:53 PM 73.0 °F - 64.0 °F 73% 29.92 in 10.0 mi Calm Calm - N/A   Clear